Location: Korntal-Münchingen
(48.8475°N, 9.0977°E)
Time: 01:57:36
(UTC+00:00)

Daily predictions for brighter satellites

Satellite Brightness Start Highest point End
(mag) Time Altitude Azimuth Time Altitude Azimuth Time Altitude Azimuth
USA 234 4.2 03:05:59 10° ENE 03:10:26 40° NNE 03:10:26 40° NNE
Cosmos 2322 Rocket 4.5 03:19:55 15° NNE 03:21:19 17° NE 03:24:52 10° ENE
USA 59 Rocket 2.4 03:34:44 19° ESE 03:34:44 19° ESE 03:36:17 10° ESE
NOSS 3-1 (C) 4.3 03:34:05 50° N 03:35:21 56° NE 03:43:40 10° ESE
Cosmos 1833 Rocket 4.4 03:46:20 22° NNE 03:46:20 22° NNE 03:48:24 10° NNE
Timation 1 Rocket 4.5 03:48:09 68° ESE 03:48:15 68° ESE 03:54:10 10° NE
SL-16 R/B 3.7 03:46:48 26° NNE 03:48:41 32° NE 03:53:43 10° ESE
Cosmos 2082 Rocket 2.9 03:49:32 35° SSE 03:51:27 50° ESE 03:56:52 10° NE
COSMOS 2455 2.8 03:58:09 76° NNE 03:58:27 78° NE 04:04:28 10° SE
NOSS 3-4 (A) 4.2 04:02:32 35° N 04:02:32 35° N 04:06:43 10° NE
ATLAS 3B R/B 4.2 03:59:03 25° NNW 04:01:06 27° N 04:07:35 10° ENE
NOSS 3-4 (C) 4.2 04:02:40 35° N 04:02:40 35° N 04:06:53 10° NE
Cosmos 1898 Rocket 3.7 04:02:27 65° NE 04:02:41 66° ENE 04:07:54 10° SSE
Cosmos 468 Rocket 4.0 04:10:58 76° NNE 04:10:58 76° NNE 04:15:47 10° NNE
Cosmos 1980 Rocket 3.1 04:14:14 34° SSW 04:14:14 34° SSW 04:17:29 10° S
Cosmos 2098 Rocket 4.2 04:15:58 45° SSW 04:15:58 45° SSW 04:20:00 10° S
Cosmos 2369 3.5 04:16:16 77° WNW 04:16:38 82° WSW 04:22:18 10° SSE
COSMO-SKYMED 1 3.3 04:17:34 10° SE 04:21:31 47° ENE 04:22:50 34° NNE
Aureole 1 Rocket 4.2 04:20:44 43° NW 04:23:15 71° WSW 04:30:41 10° S
SKYMED 2 3.7 04:19:25 10° SSE 04:23:44 74° ENE 04:24:01 70° NE
Tiangong 0.7 04:27:21 13° SSE 04:27:21 13° SSE 04:28:04 10° SSE
Cosmos 2180 Rocket 4.4 04:23:51 39° NNW 04:26:14 66° W 04:32:29 10° S
Cosmos 1937 Rocket 3.5 04:25:55 46° N 04:27:25 77° ENE 04:32:33 10° SSE
NOAA 12 4.5 04:24:01 10° NNE 04:29:18 63° ESE 04:34:30 10° S
SJ-11-01 4.1 04:25:29 10° NNE 04:30:12 85° WNW 04:34:53 10° SSW
Cosmos 372 Rocket 3.9 04:33:38 59° SW 04:33:38 59° SW 04:38:18 10° S
Celestis-02/Orion 38 4.5 04:30:13 10° NNE 04:35:12 58° NW 04:35:17 58° WNW
Cosmos 2333 Rocket 2.9 04:33:56 20° NNW 04:37:45 51° NE 04:43:20 10° SE
NOSS 3-1 (A) 4.2 04:37:46 26° NNW 04:41:58 65° NE 04:50:32 10° SE
Cosmos 1606 Rocket 3.4 04:43:12 67° WNW 04:43:23 68° W 04:47:45 10° S
Cosmos 2360 Rocket 3.3 04:40:11 15° NNW 04:44:27 40° NE 04:49:44 10° ESE
Cosmos 2026 Rocket 4.3 04:41:23 10° S 04:47:22 66° E 04:53:24 10° NNE
USA 234 3.8 04:48:28 10° ENE 04:54:38 45° N 04:57:47 27° NW
Helios 1A Rocket 2.2 04:52:25 10° SSE 04:55:45 80° WSW 04:55:47 80° W
SeaSat 1 4.2 04:56:27 10° N 04:58:20 16° NNW 04:58:20 16° NNW
Cosmos 2219 Rocket 3.5 04:58:08 10° NNW 05:03:16 36° NE 05:08:26 10° ESE
SL-4 R/B 1.6 05:03:15 53° N 05:03:23 53° N 05:06:32 10° E
ATLAS 5 CENTAUR R/B 3.3 05:05:56 12° N 05:05:56 12° N 05:06:37 10° NNE
Cosmos 2322 Rocket 2.6 05:01:43 14° NNW 05:06:33 62° ENE 05:12:10 10° SE
Meteor 1-26 Rocket 4.2 05:04:15 10° N 05:09:47 84° E 05:15:27 10° SSE
Cosmos 1726 Rocket 3.7 05:08:07 31° NW 05:09:47 49° W 05:13:52 10° SSW
Cosmos 1092 Rocket 4.0 05:04:53 10° S 05:11:10 85° E 05:17:27 10° N
Meteor 2-3 Rocket 3.6 05:05:27 10° SSW 05:11:11 74° WNW 05:16:54 10° N
CZ-4 R/B 3.8 05:10:29 10° N 05:15:01 53° WNW 05:19:29 10° SW
Cosmos 489 Rocket 4.4 05:09:15 10° SW 05:15:31 64° WNW 05:21:45 10° NNE
Nadezhda 4 Rocket 4.2 05:10:13 10° SSW 05:16:17 48° WNW 05:22:21 10° N
NOSS 2-1 (D) 4.4 05:17:47 26° WSW 05:18:16 27° SW 05:22:13 10° S
CZ-2C R/B 4.4 05:15:12 10° NNW 05:16:11 13° NNW 05:16:11 13° NNW
USA 59 Rocket 1.1 05:20:26 24° WSW 05:20:56 24° SW 05:24:47 10° S
Cosmos 841 Rocket 3.7 05:18:27 10° SW 05:23:31 48° WNW 05:28:37 10° NNE
COSMOS 2406 3.1 05:18:28 10° SW 05:24:06 64° WNW 05:29:46 10° NNE
Cosmos 2221 4.1 05:21:25 10° N 05:25:13 34° ENE 05:28:59 10° SE
NOSS 2-1 (E) 4.3 05:25:12 26° W 05:26:07 29° SW 05:30:08 10° S
NOSS 3-1 (C) 4.3 05:21:26 21° WNW 05:26:22 50° WSW 05:34:49 10° SSE
Cosmos 1626 Rocket 4.3 05:22:44 10° S 05:27:03 55° E 05:31:22 10° NNE
Cosmos 1833 Rocket 4.4 05:28:01 14° NW 05:28:12 14° NNW 05:31:13 10° N
Cosmos 1892 Rocket 3.7 05:25:57 10° SSW 05:30:10 48° WNW 05:34:26 10° N
COSMOS 2428 4.5 05:27:14 10° NNW 05:31:57 26° NE 05:36:39 10° E
SL-16 R/B 2.3 05:28:40 16° NW 05:33:04 54° WSW 05:38:33 10° S
Cosmos 2082 Rocket 2.8 05:31:29 14° WSW 05:35:44 33° NW 05:40:49 10° NNE
CZ-2D R/B 4.5 05:35:34 10° NNE 05:38:32 36° E 05:41:30 10° SSE
IRS-1D 4.2 05:37:39 10° N 05:41:59 31° WNW 05:46:22 10° WSW
COSMOS 2455 4.1 05:41:19 17° WNW 05:43:43 22° WSW 05:48:11 10° SSW
NOSS 8 (A) 4.1 05:45:58 18° NW 05:47:57 77° NE 05:51:09 10° SE
Cosmos 405 Rocket 2.3 05:45:30 10° S 05:48:45 81° ESE 05:52:03 10° NNE
Orbus 7S? 2.4 05:47:32 21° NW 05:49:11 77° NE 05:52:02 10° ESE
ATLAS 3B R/B 3.8 05:46:23 10° NW 05:53:55 45° NNE 06:01:11 10° ESE
Cosmos-2242 3.5 05:50:12 10° NNW 05:54:07 37° W 05:57:59 10° SSW
Cosmos 2278 4.2 05:51:02 11° NW 05:56:04 41° WSW 06:01:19 10° S
COSMO-SKYMED 1 3.9 05:54:10 10° SW 05:57:05 19° W 05:59:09 14° NW
Cosmos 1812 Rocket 3.8 05:53:07 10° N 05:57:26 71° ENE 06:01:45 10° SSE
Cosmos 1707 3.6 05:55:09 10° N 05:58:09 39° ENE 06:01:07 10° SSE
Cosmos 1437 Rocket 3.4 05:55:29 10° N 05:58:50 48° ENE 06:02:12 10° SSE
Cosmos 1484 Rocket 3.1 05:57:44 10° N 06:00:49 31° WNW 06:03:51 10° SW
Cosmos 2058 Rocket 3.9 05:57:18 10° NNW 06:01:13 30° W 06:05:04 10° SSW
Cosmos 1602 Rocket 3.9 06:00:32 10° S 06:04:57 73° E 06:09:24 10° NNE
Okean 1 4.0 06:03:58 10° NNW 06:06:59 26° W 06:09:59 10° SSW
CORIOLIS 4.1 06:06:15 10° NNE 06:11:39 78° WNW 06:17:01 10° SSW
SL-16 R/B 4.5 06:10:11 10° N 06:12:05 12° NNE 06:13:59 10° NE
ARIANE 5 R/B 2.7 06:07:47 10° NNE 06:13:01 82° ESE 06:18:14 10° SSW
Cosmos 2285 Rocket 4.2 06:07:50 10° NNW 06:14:04 58° WSW 06:20:20 10° S
ATLAS 2AS CENTAUR R/B 3.7 06:08:50 10° SSW 06:15:40 55° ESE 06:22:21 10° NE
SL-08 ROCKET BODY 4.4 06:10:49 10° SSW 06:16:36 63° WNW 06:22:25 10° N
SL-08 R/B 3.7 06:13:10 10° SSE 06:17:43 67° ENE 06:22:23 10° N
Cosmos 2333 Rocket 3.1 06:16:47 10° NW 06:21:48 31° WSW 06:26:46 10° SSW
Meteor 1-10 Rocket 4.4 06:16:05 10° NNW 06:22:01 89° W 06:27:57 10° S
SAR-Lupe-4 3.5 06:19:45 10° N 06:23:17 65° WNW 06:26:48 10° SSW
SMAP 3.2 06:19:39 10° N 06:24:13 55° WNW 06:28:45 10° SSW
Cosmos 1833 4.2 06:20:46 10° SSW 06:26:25 82° WNW 06:32:09 10° NNE
Cosmos 2360 Rocket 2.8 06:23:13 10° NW 06:28:25 39° WSW 06:33:35 10° S
Cosmos 2315 Rocket 4.2 06:22:58 10° N 06:29:22 84° E 06:35:42 10° S
Landsat 7 3.8 06:25:36 10° N 06:30:11 59° WNW 06:34:45 10° SSW
Meteor 1-19 Rocket 4.3 06:24:55 10° NNW 06:30:40 73° W 06:36:32 10° S
